Rochester, NY

5:38 AM EST on December 05, 2016 (GMT -0500)
Greater Rochester International

Weather History for KROC - January, 2013

Change the Weather History Date:

Wednesday, January 2, 2013

  Actual Average Record
Temperature  
Mean Temperature 17 °F 26 °F  
Max Temperature 26 °F 33 °F 62 °F (1876)
Min Temperature 7 °F 19 °F -3 °F (1968)
Degree Days  
Heating Degree Days 48 39  
Month to date heating degree days 92 78  
Since 1 July heating degree days 2268 2531  
Cooling Degree Days 0 0  
Month to date cooling degree days 0 0  
Year to date cooling degree days 0 0  
Moisture  
Dew Point 14 °F    
Average Humidity 78    
Maximum Humidity 88    
Minimum Humidity 68    
Precipitation  
Precipitation 0.03 in 0.08 in 0.71 in (1965)
Month to date precipitation 0.04 0.16  
Year to date precipitation 0.04 0.16  
Snow  
Snow 2.30 in 0.80 in 8.20 in (1965)
Month to date snowfall 2.8 1.7  
Since 1 July snowfall 26.2 30.9  
Snow Depth 8.00 in    
Sea Level Pressure  
Sea Level Pressure 30.13 in    
Wind  
Wind Speed 10 mph (North)    
Max Wind Speed 22 mph    
Max Gust Speed 26 mph    
Visibility 6 miles    
Events Fog , Snow    
T = Trace of Precipitation, MM = Missing Value Source: NWS Daily Summary

Daily Weather History Graph

Daily Weather History Graph

Search for Another Location

Airport or City:

Trip Planner

Search our weather history database for the weather conditions in past years. The results will help you decide how hot, cold, wet, or windy it might be!

Date:

Astronomy

Jan. 02, 2013 Rise Set
Actual Time 7:42 AM EST 4:47 PM EST
Civil Twilight 7:10 AM EST 5:19 PM EST
Nautical Twilight 6:34 AM EST 5:55 PM EST
Astronomical Twilight 6:00 AM EST 6:30 PM EST
Moon 10:27 PM EST (1/2) 10:14 AM EST (1/2)
Length of Visible Light 10h 09m
Length of Day
9h 05m
Waning Gibbous, 75% of the Moon is Illuminated
Jan 2
Waning Gibbous
Jan 4
Last Quarter
Jan 11
New
Jan 18
First Quarter
Jan 26
Full

Hourly Weather History & Observations

Time (EST) Temp. Windchill Dew Point Humidity Pressure Visibility Wind Dir Wind Speed Gust Speed Precip Events Conditions
12:54 AM 8.1 °F -2.0 °F 5.0 °F 87% 30.04 in 9.0 mi WSW 5.8 mph - 0.00 in Snow Light Snow
1:54 AM 10.9 °F 0.2 °F 6.1 °F 81% 30.03 in 10.0 mi SW 6.9 mph - 0.00 in   Overcast
2:54 AM 12.9 °F 0.7 °F 8.1 °F 81% 30.03 in 10.0 mi SW 9.2 mph - N/A   Overcast
3:54 AM 12.9 °F 2.6 °F 7.0 °F 77% 30.02 in 10.0 mi WSW 6.9 mph - N/A   Mostly Cloudy
4:54 AM 16.0 °F 6.3 °F 10.9 °F 81% 30.02 in 10.0 mi SW 6.9 mph - 0.00 in Snow Light Snow
5:54 AM 18.0 °F 7.7 °F 10.9 °F 74% 30.01 in 9.0 mi WSW 8.1 mph - 0.00 in Snow Light Snow
6:54 AM 21.2 °F 7.3 °F 12.2 °F 68% 30.00 in 9.0 mi WSW 16.1 mph 24.2 mph N/A Snow Light Snow
7:54 AM 21.9 °F 8.7 °F 12.0 °F 66% 30.05 in 9.0 mi West 15.0 mph - 0.00 in Snow Light Snow
8:54 AM 23.0 °F 11.1 °F 12.0 °F 63% 30.06 in 10.0 mi West 12.7 mph - 0.00 in   Overcast
9:54 AM 23.0 °F 11.7 °F 12.9 °F 65% 30.09 in 10.0 mi West 11.5 mph 20.7 mph 0.00 in Snow Light Snow
10:54 AM 23.0 °F 9.6 °F 15.1 °F 72% 30.09 in 4.0 mi West 16.1 mph 21.9 mph 0.00 in Snow Light Snow
11:54 AM 25.0 °F 14.2 °F 16.0 °F 69% 30.09 in 4.0 mi West 11.5 mph - 0.00 in Snow Light Snow
12:54 PM 25.0 °F 13.6 °F 17.1 °F 72% 30.09 in 5.0 mi West 12.7 mph - 0.00 in Snow Light Snow
1:54 PM 26.1 °F 16.2 °F 17.1 °F 69% 30.10 in 9.0 mi West 10.4 mph - 0.00 in Snow Light Snow
2:54 PM 26.1 °F 16.8 °F 17.1 °F 69% 30.13 in 7.0 mi West 9.2 mph - 0.00 in Snow Light Snow
3:22 PM 26.6 °F 17.5 °F 17.6 °F 69% 30.12 in 2.5 mi North 9.2 mph - 0.00 in Snow Light Snow
3:30 PM 24.8 °F 15.3 °F 19.4 °F 80% 30.12 in 1.0 mi North 9.2 mph - 0.00 in Snow Light Snow
3:54 PM 24.1 °F 15.2 °F 21.0 °F 88% 30.16 in 1.0 mi North 8.1 mph - 0.00 in Snow Light Snow
4:04 PM 24.8 °F 15.3 °F 21.2 °F 86% 30.13 in 0.5 mi North 9.2 mph - 0.00 in Fog , Snow Light Snow
4:19 PM 24.8 °F 16.1 °F 21.2 °F 86% 30.13 in 0.5 mi NNE 8.1 mph - 0.01 in Fog , Snow Snow
4:54 PM 23.0 °F 14.7 °F 19.9 °F 88% 30.18 in 0.5 mi NNE 6.9 mph - 0.02 in Fog , Snow Snow
5:04 PM 23.0 °F 12.4 °F 19.4 °F 86% 30.15 in 0.5 mi NE 10.4 mph - 0.00 in Fog , Snow Snow
5:32 PM 21.2 °F 10.9 °F 17.6 °F 86% 30.16 in 1.0 mi ENE 9.2 mph - 0.01 in Snow Light Snow
5:39 PM 21.2 °F 10.9 °F 17.6 °F 86% 30.16 in 2.0 mi ENE 9.2 mph - 0.01 in Snow Light Snow
5:54 PM 21.0 °F 11.4 °F 17.1 °F 85% 30.19 in 2.0 mi ENE 8.1 mph - 0.01 in Snow Light Snow
6:06 PM 21.2 °F 12.6 °F 17.6 °F 86% 30.17 in 2.5 mi ENE 6.9 mph - 0.00 in Snow Light Snow
6:54 PM 19.9 °F 8.6 °F 16.0 °F 85% 30.20 in 3.0 mi ENE 10.4 mph - 0.00 in Snow Light Snow
7:54 PM 19.9 °F 9.3 °F 15.1 °F 81% 30.21 in 6.0 mi ENE 9.2 mph - 0.00 in Snow Light Snow
8:06 PM 19.4 °F 9.5 °F 15.8 °F 86% 30.18 in 7.0 mi ENE 8.1 mph - 0.00 in Snow Light Snow
8:54 PM 18.0 °F 6.1 °F 12.9 °F 81% 30.23 in 5.0 mi East 10.4 mph - 0.00 in Snow Light Snow
9:01 PM 17.6 °F 5.7 °F 12.2 °F 79% 30.20 in 6.0 mi East 10.4 mph - 0.00 in Snow Light Snow
9:54 PM 17.1 °F 6.6 °F 12.0 °F 81% 30.24 in 5.0 mi East 8.1 mph - 0.00 in Snow Light Snow
10:54 PM 16.0 °F 6.3 °F 12.0 °F 84% 30.24 in 7.0 mi East 6.9 mph - 0.00 in Snow Light Snow
11:10 PM 15.8 °F 5.1 °F 10.4 °F 79% 30.22 in 8.0 mi ESE 8.1 mph - 0.00 in Snow Light Snow
11:54 PM 15.1 °F 5.2 °F 10.0 °F 80% 30.25 in 7.0 mi ESE 6.9 mph - 0.00 in Snow Light Snow